View from above orbital plane
|
View from above satellite
|
Ground track
|
The orbit data is extracted from the following two-line orbital elements,
1 19468U 88080B 21101.82716597 -.00000041 00000-0 26617-5 0 9995
2 19468 99.2022 124.8188 0072194 136.4152 36.2966 14.03543371668712
Epoch (UTC): | 11 April 2021 19:51:07 |
Eccentricity: | 0.0072194 |
inclination: | 99.2022° |
perigee height: | 829 km |
apogee height: | 934 km |
right ascension of ascending node: | 124.8188° |
argument of perigee: | 136.4152° |
revolutions per day: | 14.03543371 |
mean anomaly at epoch: | 36.2966° |
orbit number at epoch: | 66871 |
The dashed part of the orbit path shows where the satellite is in the earth's shadow,
|
|